Home   Weather   Tananger   Past weeks
Flag for Norway

Past Weather in Tananger, Norway — Yesterday and Last 2 Weeks

Now
52 °F

Clear.


Feels Like: 52 °F
Forecast: 65 / 57 °F
Wind: 2 mph from West

Location: Stavanger / Sola

Current Time: Jul 17, 2019 at 2:43:05 am

Latest Report: Jul 17, 2019 at 1:50 am


Visibility: 10 mi

Pressure: 29.95 "Hg

Humidity: 94%

Dew Point: 50 °F

Location of TanangerLocation

Past Weather in Tananger — Graph

°F

Tananger Temperature Yesterday

Maximum temperature yesterday: 61 °F (at 2:20 pm)
Minimum temperature yesterday: 52 °F (at 4:50 am)
Average temperature yesterday: 56 °F

High & Low Weather Summary for the Past Weeks

 TemperatureHumidityPressure
High63 °F (Jul 10, 4:50 pm)100% (Jul 6, 6:50 am)30.12 "Hg (Jul 6, 6:50 am)
Low45 °F (Jul 5, 4:50 am)55% (Jul 2, 1:50 pm)29.53 "Hg (Jul 6, 6:50 am)
Average54 °F80%29.93 "Hg
* Reported Jul 2 1:50 am — Jul 17 1:20 am, Tananger. Weather by CustomWeather, © 2019

Note: Actual official high and low records may vary slightly from our data, if they occured in-between our weather recording intervals... More about our weather records

Advertising

Tananger Weather History for the Previous 24 Hours

Scroll right to see more
 ConditionsComfort  
Time TempWeatherWind HumidityBarometerVisibility
1:20 am
Wed, Jul 17
52 °FClear.2 mph94%29.95 "Hg10 mi
12:50 am54 °FClear.3 mph88%29.95 "Hg10 mi
12:20 am52 °FClear.3 mph94%29.95 "Hg10 mi
11:50 pm
Tue, Jul 16
54 °FPassing clouds.6 mph88%29.95 "HgN/A
11:20 pm54 °FPassing clouds.8 mph88%29.98 "HgN/A
10:50 pm54 °FClear.7 mph88%29.95 "Hg10 mi
10:20 pm54 °FSunny.7 mph88%29.95 "Hg10 mi
9:50 pm54 °FSunny.13 mph88%29.95 "Hg10 mi
9:20 pm55 °FSunny.13 mph82%29.95 "Hg10 mi
8:50 pm55 °FSunny.12 mph82%29.95 "Hg10 mi
8:20 pm57 °FSunny.10 mph77%29.95 "Hg10 mi
7:50 pm57 °FSunny.13 mph82%29.95 "Hg10 mi
7:20 pm57 °FSunny.14 mph82%29.95 "Hg10 mi
6:50 pm59 °FSunny.12 mph77%29.95 "Hg10 mi
6:20 pm61 °FSunny.10 mph72%29.95 "Hg10 mi
5:50 pm61 °FSunny.12 mph72%29.95 "Hg10 mi
5:20 pm61 °FPassing clouds.10 mph72%29.95 "HgN/A
4:50 pm61 °FPassing clouds.17 mph72%29.95 "HgN/A
4:20 pm61 °FPassing clouds.15 mph72%29.95 "HgN/A
3:50 pm59 °FPassing clouds.18 mph77%29.95 "HgN/A
3:20 pm59 °FPassing clouds.17 mph77%29.95 "HgN/A
2:50 pm59 °FPassing clouds.18 mph77%29.95 "HgN/A
2:20 pm61 °FPassing clouds.18 mph72%29.95 "HgN/A
1:50 pm59 °FPassing clouds.18 mph77%29.95 "HgN/A
1:20 pm59 °FPassing clouds.17 mph77%29.95 "HgN/A
12:50 pm59 °FPassing clouds.15 mph77%29.95 "HgN/A
12:20 pm59 °FPassing clouds.14 mph77%29.95 "HgN/A
11:50 am57 °FPassing clouds.13 mph82%29.95 "HgN/A
11:20 am59 °FPassing clouds.13 mph77%29.95 "HgN/A
10:50 am59 °FPassing clouds.9 mph77%29.95 "HgN/A
10:20 am59 °FPassing clouds.6 mph77%29.95 "HgN/A
9:50 am57 °FScattered clouds.7 mph82%29.95 "HgN/A
9:20 am57 °FScattered clouds.10 mph82%29.98 "HgN/A
8:50 am57 °FScattered clouds.8 mph82%29.95 "HgN/A
8:20 am54 °FScattered clouds.9 mph88%29.98 "HgN/A
7:50 am54 °FScattered clouds.10 mph88%29.95 "HgN/A
7:20 am54 °FScattered clouds.7 mph88%29.98 "HgN/A
6:50 am52 °FScattered clouds.9 mph94%29.98 "HgN/A
6:20 am52 °FScattered clouds.7 mph88%29.98 "HgN/A
5:50 am52 °FScattered clouds.7 mph88%29.98 "HgN/A
5:20 am52 °FScattered clouds.9 mph94%29.98 "HgN/A
4:50 am52 °FPassing clouds.10 mph94%29.98 "HgN/A
3:50 am54 °FPassing clouds.12 mph88%29.98 "HgN/A
2:50 am54 °FPassing clouds.10 mph88%29.98 "HgN/A
Weather by CustomWeather, © 2019

See weather overview

LIVE PARTIAL LUNAR ECLIPSE – Watch the eclipse as it happens